Sacramento, CA

2:32 PM PST on December 07, 2016 (GMT -0800)
Sacramento Executive

Weather History for KSAC - August, 2014

Change the Weather History Date:

Sunday, August 17, 2014

  Actual Average Record
Temperature  
Mean Temperature 75 °F -  
Max Temperature 93 °F 91 °F 106 °F (1966)
Min Temperature 57 °F 58 °F 51 °F (1955)
Degree Days  
Heating Degree Days 0    
Cooling Degree Days 10    
Growing Degree Days 24 (Base 50)    
Moisture  
Dew Point 52 °F    
Average Humidity 50    
Maximum Humidity 86    
Minimum Humidity 13    
Precipitation  
Precipitation 0.00 in 0.00 in 0.06 in (1985)
Month to date precipitation T 0.02  
Year to date precipitation 7.90 11.92  
Since 1 July precipitation 0.01  
Sea Level Pressure  
Sea Level Pressure 29.92 in    
Wind  
Wind Speed 5 mph (SSW)    
Max Wind Speed 9 mph    
Max Gust Speed 15 mph    
Visibility 10 miles    
Events      
T = Trace of Precipitation, MM = Missing Value Source: NWS Daily Summary

Daily Weather History Graph

Daily Weather History Graph

Search for Another Location

Airport or City:

Trip Planner

Search our weather history database for the weather conditions in past years. The results will help you decide how hot, cold, wet, or windy it might be!

Date:

Astronomy

Aug. 17, 2014 Rise Set
Actual Time 6:22 AM PDT 7:57 PM PDT
Civil Twilight 5:53 AM PDT 8:25 PM PDT
Nautical Twilight 5:20 AM PDT 8:59 PM PDT
Astronomical Twilight 4:44 AM PDT 9:34 PM PDT
Moon No Moon Rise 2:07 PM PDT (8/17)
Length of Visible Light 14h 31m
Length of Day
13h 35m
Waning Gibbous, 47% of the Moon is Illuminated
Aug 17
Waning Gibbous
Aug 25
New
Sep 2
First Quarter
Sep 8
Full
Sep 15
Last Quarter

Hourly Weather History & Observations

Time (PDT) Temp. Heat Index Dew Point Humidity Pressure Visibility Wind Dir Wind Speed Gust Speed Precip Events Conditions
12:53 AM 64.9 °F - 52.0 °F 63% 29.95 in 10.0 mi South 3.5 mph - N/A   Clear
1:53 AM 63.0 °F - 53.1 °F 70% 29.94 in 10.0 mi South 3.5 mph - N/A   Clear
2:53 AM 62.1 °F - 53.1 °F 72% 29.94 in 10.0 mi Variable 3.5 mph - N/A   Clear
3:53 AM 61.0 °F - 53.1 °F 75% 29.94 in 10.0 mi SE 3.5 mph - N/A   Clear
4:53 AM 60.1 °F - 52.0 °F 75% 29.95 in 10.0 mi Calm Calm - N/A   Clear
5:53 AM 59.0 °F - 53.1 °F 81% 29.95 in 10.0 mi SSW 4.6 mph - N/A   Clear
6:53 AM 57.0 °F - 53.1 °F 87% 29.97 in 10.0 mi South 3.5 mph - N/A   Clear
7:53 AM 59.0 °F - 53.1 °F 81% 29.98 in 10.0 mi SSW 4.6 mph - N/A   Clear
8:53 AM 63.0 °F - 54.0 °F 72% 29.99 in 10.0 mi SSW 3.5 mph - N/A   Clear
9:53 AM 69.1 °F - 55.0 °F 61% 29.99 in 10.0 mi Variable 5.8 mph - N/A   Clear
10:53 AM 73.0 °F - 55.0 °F 53% 29.99 in 10.0 mi South 3.5 mph - N/A   Clear
11:53 AM 80.1 °F 80.0 °F 54.0 °F 40% 29.97 in 10.0 mi West 3.5 mph - N/A   Clear
12:53 PM 84.0 °F 82.6 °F 54.0 °F 35% 29.95 in 10.0 mi SW 4.6 mph - N/A   Clear
1:53 PM 88.0 °F 85.7 °F 53.1 °F 30% 29.93 in 10.0 mi SSW 8.1 mph - N/A   Clear
2:53 PM 91.4 °F - 50.0 °F 24% 29.91 in 10.0 mi WSW 8.1 mph - N/A   Clear
3:53 PM 91.9 °F - 46.9 °F 21% 29.88 in 10.0 mi SW 8.1 mph - N/A   Clear
4:53 PM 91.9 °F - 34.0 °F 13% 29.87 in 10.0 mi WSW 6.9 mph - N/A   Clear
5:53 PM 91.0 °F - 41.0 °F 17% 29.85 in 10.0 mi Variable 5.8 mph - N/A   Clear
6:53 PM 87.1 °F - 51.1 °F 29% 29.84 in 10.0 mi SSW 9.2 mph - N/A   Clear
7:53 PM 80.1 °F 80.0 °F 54.0 °F 40% 29.84 in 10.0 mi South 10.4 mph 17.3 mph N/A   Clear
8:53 PM 73.9 °F - 53.1 °F 48% 29.85 in 10.0 mi SSW 6.9 mph - N/A   Clear
9:53 PM 69.1 °F - 54.0 °F 58% 29.86 in 10.0 mi SSW 8.1 mph - N/A   Clear
10:53 PM 66.9 °F - 55.0 °F 66% 29.85 in 10.0 mi SSW 4.6 mph - N/A   Clear
11:53 PM 64.9 °F - 55.9 °F 73% 29.85 in 10.0 mi South 3.5 mph - N/A   Clear